Location: Newark
(7.0858°N, 171.3717°E)
Time: 19:59:48
(UTC+00:00)

Hubble Space Telescope - Pass Details

Date: 29 September 2021
Orbit: 535 x 538 km, 28.5° (Epoch: 15 October)

Event Time Altitude Azimuth Distance (km) Brightness Sun altitude
Rises 17:54:46 0° 219° (SW) 2,670 4.0 -7.8°
Reaches altitude 10° 17:57:19 10° 205° (SSW) 1,779 3.2 -7.1°
Maximum altitude 18:00:43 25° 149° (SSE) 1,110 2.8 -6.3°
Drops below altitude 10° 18:04:06 10° 94° (E) 1,776 5.4 -5.4°
Sets 18:06:39 0° 80° (E) 2,665 6.4 -4.8°
